RH
43 43 42 44 46 47 46 43 41 44 47 49 49 49 49 49 50 50 51 51 50 49 47 46 46 46 47 47 47 49 49 47 47 45 40 36 37 40 41 38 36 37 38 38 41 42 40 39 40 41 42 43 46 46 45 45 47 48 49 48 47 48 48 46 45 45 43 41 40 40 39 38 38 38 38 37 37 35 32 31 29 28 30 30 29
43 41 40 42 44 46 47 47 45 45 48 50 50 49 49 49 49 49 50 51 51 51 49 47 46 46 47 48 47 48 46 43 44 47 43 39 37 39 39 36 33 35 35 34 35 37 35 33 34 35 36 38 41 43 43 43 45 45 46 46 45 45 46 45 43 42 41 39 39 38 37 37 37 37 35 34 33 29 26 27 29 28 28 27 26
46 40 37 38 40 43 46 48 48 47 47 49 50 50 50 48 48 48 48 48 49 49 48 48 48 46 46 47 45 44 44 42 43 46 43 39 37 38 40 38 35 34 36 35 35 36 36 33 33 34 36 36 36 37 38 38 39 39 40 40 39 39 40 40 38 35 35 35 35 34 35 35 34 32 31 30 30 28 26 27 28 28 27 26 25
50 43 38 35 36 40 43 46 48 48 47 47 48 50 51 50 49 47 46 46 47 46 45 46 47 45 45 46 44 43 42 42 43 44 42 40 36 35 36 36 35 34 35 36 36 37 37 36 36 36 35 35 33 33 34 35 35 35 36 36 36 36 37 36 34 31 30 31 31 30 28 27 26 26 27 27 27 28 26 23 24 25 25 24 23
52 48 44 38 34 36 39 42 45 47 48 47 47 49 51 52 51 49 48 47 46 44 42 43 44 43 43 46 46 44 43 43 43 43 44 44 41 38 37 35 34 33 33 33 33 33 34 34 35 35 35 34 34 34 35 35 34 34 34 35 36 36 35 33 31 29 27 27 27 25 23 23 24 25 23 22 23 26 24 20 19 23 23 23 23
56 55 54 48 40 36 36 38 40 43 45 47 48 49 51 52 52 51 51 49 47 45 43 40 40 39 38 42 45 44 44 44 44 43 44 46 45 43 42 40 37 36 34 34 33 33 33 34 33 33 33 33 34 34 33 32 32 34 34 34 34 34 32 31 30 29 27 26 26 26 26 27 28 27 23 21 20 21 20 17 18 23 23 22 21
63 62 61 59 53 44 37 37 38 41 43 45 47 49 51 52 52 51 51 50 48 47 45 42 41 38 35 36 41 42 41 43 44 43 43 46 47 46 45 44 41 39 36 36 36 36 36 36 34 33 32 31 31 32 32 30 31 33 34 33 33 32 32 31 32 32 30 28 27 28 28 28 27 25 23 21 19 17 18 20 21 22 22 20 18
74 70 67 67 66 60 49 41 39 41 42 43 43 45 48 49 50 50 50 50 49 48 46 46 45 42 37 35 37 39 38 39 41 41 40 42 44 45 44 44 42 40 38 36 36 37 37 36 35 35 34 34 31 30 31 31 31 32 32 31 31 31 30 29 31 31 30 28 27 26 26 25 24 23 24 24 23 22 23 23 22 21 20 21 21
81 80 77 74 75 75 68 55 44 39 40 40 40 42 44 46 48 49 49 49 50 49 47 46 46 45 42 38 36 37 37 39 41 41 41 41 43 44 43 42 42 40 38 38 36 37 37 36 35 35 35 35 31 27 27 27 27 29 29 28 27 27 27 28 29 29 28 27 26 26 25 24 25 27 27 25 26 27 27 27 25 23 22 23 22
82 83 82 80 79 81 82 75 60 47 41 39 39 40 42 44 45 47 48 47 48 48 47 45 45 45 43 41 40 37 36 39 41 39 38 40 43 43 42 42 41 39 38 38 37 37 37 37 38 37 34 31 28 26 27 26 25 26 26 26 24 23 23 23 24 26 27 26 25 25 25 26 27 30 30 29 31 32 30 30 28 27 25 23 21
83 82 82 83 82 81 84 85 80 68 55 45 40 39 39 40 41 41 42 43 43 43 43 43 43 43 43 43 43 40 38 40 40 36 34 36 39 40 41 41 40 39 38 38 37 37 37 37 37 37 35 31 29 28 27 27 26 25 25 23 22 20 20 20 21 23 24 26 26 28 30 31 32 33 34 35 36 35 32 30 30 31 29 25 23
83 83 84 84 84 83 84 86 87 85 77 64 53 46 42 40 39 37 36 37 38 38 38 38 39 40 41 42 42 40 39 39 39 37 34 34 36 37 39 40 40 40 40 39 39 38 38 36 35 35 34 34 33 31 28 27 26 25 24 24 23 22 21 21 23 24 26 29 31 33 35 36 36 36 36 36 36 33 30 29 31 33 33 31 28
82 81 83 84 84 84 85 87 88 89 88 82 72 63 54 47 42 40 37 35 34 34 34 35 36 36 38 40 40 40 40 40 38 36 32 32 34 36 36 38 40 40 40 41 41 39 37 36 34 32 33 34 33 30 27 26 25 25 26 27 27 28 28 29 31 33 33 34 34 34 35 35 35 35 36 35 34 32 31 30 31 33 34 33 32
81 80 82 84 86 87 87 89 91 90 89 89 86 80 73 65 56 49 44 39 36 35 33 33 33 32 34 37 36 36 39 39 36 32 30 29 30 32 34 36 37 38 38 38 38 37 37 35 33 31 31 32 31 29 27 28 28 29 32 33 34 35 35 37 38 38 37 36 34 33 33 35 37 38 37 38 37 37 37 35 34 34 33 32 29
79 80 81 82 85 87 87 89 91 90 89 91 92 89 85 81 73 64 57 52 47 42 38 36 35 34 33 35 36 37 39 37 33 28 27 27 28 30 32 34 35 36 36 35 35 35 34 32 31 30 30 30 29 29 29 31 33 35 37 38 38 38 38 39 40 40 40 39 38 38 40 43 46 47 46 45 43 43 42 40 39 38 35 34 31
81 81 81 81 82 83 84 85 87 87 88 90 92 92 90 89 85 79 74 72 67 60 51 46 45 44 42 40 40 42 41 37 33 30 28 28 30 32 33 34 34 34 34 36 37 35 32 30 29 30 33 32 31 31 33 36 38 39 40 40 40 41 43 43 43 45 46 46 47 49 51 52 53 53 52 50 48 45 43 43 45 44 41 39 36
82 82 81 82 82 83 83 83 84 86 87 87 88 90 91 94 92 87 83 83 82 78 71 63 58 56 53 48 46 45 42 36 34 33 31 31 32 33 34 34 33 34 34 35 36 36 34 33 33 35 39 39 37 38 40 42 43 43 43 45 46 47 50 51 50 52 54 54 54 54 54 54 53 53 53 53 51 48 45 44 46 48 48 46 43
81 80 79 79 80 81 83 83 84 84 85 85 86 86 87 91 94 93 91 89 88 87 84 78 72 66 63 59 56 52 46 40 39 39 36 35 35 35 35 34 34 35 36 38 41 42 41 41 41 43 45 44 45 48 49 50 51 51 51 53 54 55 57 58 59 60 61 59 57 57 56 55 55 54 54 53 52 51 50 49 50 52 53 52 50
77 77 76 75 75 75 77 79 81 82 82 85 88 88 88 90 91 92 93 93 92 92 90 86 82 76 72 69 67 64 58 49 46 46 44 43 41 39 40 40 41 42 45 49 51 52 52 52 51 51 51 51 53 56 57 58 57 56 56 58 61 63 65 66 67 66 65 64 63 61 61 60 59 59 59 58 57 58 59 60 61 62 61 60 58
74 74 74 73 70 67 67 69 74 76 76 79 82 83 85 85 85 87 90 91 92 92 92 90 87 83 79 77 77 77 75 66 57 52 50 50 48 46 48 51 52 53 56 60 60 59 62 63 61 59 57 58 61 62 62 63 62 60 58 58 61 66 68 71 72 71 70 70 69 66 65 64 64 65 66 66 66 66 66 67 68 68 67 66 66
71 73 75 75 71 68 65 66 68 69 69 71 73 74 77 80 82 85 89 89 89 90 91 91 90 87 85 83 81 83 83 79 73 67 62 59 56 54 55 59 61 62 65 68 68 68 70 71 72 71 68 69 72 73 73 72 70 68 66 63 64 68 72 75 76 75 73 72 68 65 63 63 65 68 70 71 71 71 71 69 69 68 68 67 67
63 66 70 72 73 72 69 68 68 66 64 65 68 70 72 74 75 78 81 81 81 82 85 88 89 89 88 87 85 85 85 85 85 82 78 73 69 68 67 68 69 70 72 74 77 77 77 77 79 79 77 77 79 81 82 81 80 79 77 74 72 72 74 75 73 69 67 65 63 64 64 64 68 71 73 74 74 74 73 71 67 66 65 66 67
55 57 60 61 63 65 64 63 64 63 61 64 68 70 71 71 71 73 76 76 75 76 80 84 86 87 88 89 89 90 89 88 89 88 86 83 80 79 79 77 75 76 78 81 84 84 82 80 78 75 75 77 78 79 80 80 78 79 79 77 74 70 68 67 65 64 66 67 69 71 71 71 74 75 75 75 73 72 72 69 65 62 63 65 68
50 50 50 50 52 54 54 54 55 56 56 60 66 71 73 73 75 78 79 78 77 77 79 81 81 81 82 83 84 85 83 81 82 83 85 87 85 83 83 81 80 80 80 80 81 78 76 77 75 72 72 75 76 75 73 71 71 71 71 70 70 67 65 68 71 73 74 75 75 75 74 73 74 74 72 70 69 68 68 68 66 64 63 64 68
44 44 45 45 46 48 49 47 46 46 46 49 56 63 66 65 66 71 75 77 78 79 79 79 78 76 76 76 78 80 80 78 77 76 77 79 79 79 78 77 77 78 78 77 76 73 71 71 70 69 70 72 73 73 71 69 69 69 67 67 68 71 75 78 79 77 75 75 74 72 71 71 70 68 65 64 64 64 64 64 65 65 63 63 66
38 38 41 41 43 47 49 46 43 41 40 41 42 46 51 55 55 56 60 64 68 72 74 76 76 77 78 77 78 81 82 82 80 75 70 70 71 72 74 76 78 79 79 77 74 71 69 66 64 65 67 66 66 66 65 64 64 64 65 65 68 75 80 77 73 71 71 70 68 67 66 66 63 59 56 55 57 59 61 62 64 64 63 61 61
35 34 35 37 38 42 44 44 45 45 43 44 44 41 40 45 48 49 52 54 55 57 60 63 65 69 72 74 75 77 78 79 77 71 66 65 66 66 67 70 73 73 71 68 65 62 60 57 56 57 57 57 58 60 60 62 63 63 64 63 64 68 68 62 60 63 63 61 59 58 58 57 55 53 52 52 52 54 55 58 61 62 62 59 57
34 33 34 35 34 35 37 41 47 49 45 43 46 44 40 39 38 40 44 48 50 50 50 52 53 55 57 59 62 64 67 70 69 66 63 64 62 60 58 57 57 58 57 55 53 52 51 50 50 52 53 57 61 63 64 64 63 61 60 58 56 57 57 53 51 53 51 49 48 47 45 46 45 45 45 46 48 47 46 47 49 54 58 59 58
35 34 38 40 38 38 41 41 41 44 46 43 40 38 38 37 36 35 35 37 40 43 45 47 48 48 48 48 48 48 52 57 60 60 61 61 60 59 55 49 46 46 45 45 45 45 45 48 53 57 59 61 62 62 61 60 59 57 55 53 50 50 51 49 47 45 43 41 40 38 38 37 36 34 34 36 38 37 34 32 32 35 42 50 57
36 34 37 40 40 42 47 44 35 35 42 44 38 34 33 33 34 36 35 34 34 35 37 39 39 39 41 42 41 39 40 43 45 46 48 48 48 49 48 46 43 40 38 39 40 40 42 48 54 56 56 54 53 52 52 51 52 52 52 50 48 48 48 46 43 41 38 37 36 35 34 32 30 30 30 30 28 25 23 24 26 26 27 33 42
40 37 35 38 39 40 43 42 35 32 34 35 33 34 36 35 32 31 33 34 34 33 33 33 33 32 34 35 34 33 33 33 33 33 33 34 34 35 37 38 39 38 38 38 37 38 43 48 48 48 48 46 44 45 44 43 44 44 44 44 44 44 43 42 37 33 32 32 31 30 29 28 27 27 26 25 23 22 23 25 27 28 28 29 32
42 42 41 40 41 41 40 39 38 36 35 35 35 37 41 44 41 36 33 31 31 31 30 29 28 28 28 30 31 30 29 30 30 30 30 30 31 31 31 31 32 33 34 33 32 36 41 42 39 39 39 38 37 38 38 38 37 38 38 37 36 36 36 31 25 23 23 23 22 22 22 22 21 19 19 19 19 21 23 23 24 26 29 30 30
39 41 41 40 40 40 39 39 40 39 39 41 43 44 46 49 48 45 41 36 33 31 30 28 28 26 25 25 26 26 26 26 26 27 28 29 30 30 31 32 31 30 30 28 30 35 37 35 32 33 33 32 32 32 32 33 33 33 32 31 30 30 27 20 16 18 19 16 16 18 19 18 15 15 16 17 18 19 20 21 22 25 27 26 23
40 40 39 39 37 36 34 35 36 36 37 38 41 45 50 51 47 45 46 44 41 39 37 34 32 30 27 25 24 24 24 24 24 24 25 25 27 28 29 30 30 30 30 30 33 36 35 33 31 31 30 30 30 29 29 30 30 30 29 29 29 29 24 19 19 20 17 15 16 19 19 16 14 14 15 17 18 19 20 21 23 24 24 23 20
44 43 42 39 37 35 34 32 31 30 31 31 33 39 45 46 43 45 47 47 45 44 43 40 38 34 30 26 23 23 23 23 23 24 24 24 25 26 27 29 31 33 34 35 35 36 35 34 33 32 31 30 29 29 29 29 28 28 28 27 27 28 26 25 24 21 15 15 18 19 17 16 16 17 17 17 17 18 20 22 23 23 22 22 21
48 47 45 43 40 37 34 32 31 29 28 28 30 35 39 40 40 41 42 41 40 40 40 39 38 37 33 28 24 23 22 21 23 23 23 24 24 24 25 30 34 35 35 33 33 33 33 32 32 31 31 31 30 29 29 28 28 28 28 27 27 28 27 28 27 23 19 20 21 20 18 19 20 20 19 18 18 19 20 21 21 20 20 20 19
49 48 46 45 44 41 37 34 31 29 28 29 32 37 41 41 40 40 39 37 38 38 37 37 38 37 34 32 31 27 21 19 21 22 23 24 24 23 26 31 33 33 32 31 30 29 29 30 30 29 30 30 30 29 29 29 28 28 27 27 28 28 28 29 28 26 25 26 26 24 23 23 23 21 20 20 20 20 20 20 19 18 17 17 16
47 46 46 45 44 43 40 37 32 31 34 38 41 44 44 43 41 41 40 39 39 38 38 38 37 36 35 36 37 32 24 20 23 26 26 27 28 28 29 31 32 31 31 29 28 28 28 28 28 28 28 29 29 30 30 30 29 28 28 28 28 28 28 28 27 27 27 27 27 27 27 26 24 23 23 23 22 21 21 20 18 17 15 15 16
44 44 45 45 43 41 40 38 34 34 38 43 45 45 45 44 43 42 41 40 40 39 38 38 37 36 37 39 41 36 29 27 30 32 31 31 31 31 31 31 31 31 30 29 29 29 29 28 28 28 29 30 30 31 32 32 31 30 30 30 29 27 26 26 26 25 26 26 26 27 27 27 26 25 25 25 25 24 23 20 17 15 14 14 16
41 41 42 42 41 40 39 37 35 35 38 42 44 44 44 44 44 43 41 40 39 38 37 37 36 35 37 39 40 36 32 32 35 36 36 35 33 33 32 31 30 31 31 30 30 30 30 30 30 30 30 31 31 31 31 32 32 31 31 30 29 27 26 26 25 25 25 25 26 27 27 27 27 26 26 27 28 27 24 21 19 19 19 19 19
42 41 40 41 41 39 38 38 37 35 34 36 39 42 44 43 43 42 41 40 40 38 37 36 34 34 35 37 37 35 33 34 37 39 39 38 37 37 36 34 33 33 32 32 32 32 32 32 32 32 32 32 31 31 31 32 32 32 31 30 29 27 27 26 26 26 26 26 26 27 27 27 28 28 27 28 29 28 27 25 25 25 25 24 24
48 45 42 41 41 41 40 39 38 35 34 35 38 43 46 45 44 42 41 40 40 40 39 38 37 37 37 38 37 34 31 34 37 39 38 38 38 38 38 36 35 35 36 36 36 36 36 36 35 35 34 33 33 33 34 33 33 33 32 31 31 29 29 28 27 27 27 27 27 27 27 27 28 29 28 29 29 28 28 28 27 27 27 26 26
56 51 47 45 44 43 42 41 39 39 41 43 46 47 48 47 45 44 43 42 42 42 41 40 39 38 38 39 38 36 34 36 37 37 36 36 35 35 36 37 36 36 37 38 38 38 37 37 37 37 36 36 35 35 35 35 35 35 34 34 34 33 33 32 31 30 29 29 29 28 27 28 29 29 29 29 30 29 29 29 27 27 27 27 27
58 55 53 51 48 47 46 45 44 46 48 49 50 50 50 49 48 47 46 45 44 43 42 41 40 39 39 40 39 38 38 38 37 36 36 35 33 33 34 35 35 35 36 37 37 37 37 37 37 37 37 37 37 37 37 36 36 36 36 36 36 35 35 35 35 33 32 32 32 31 30 31 31 30 30 30 30 30 30 30 28 27 27 27 27
59 57 56 54 52 51 51 50 51 53 54 53 52 52 51 51 50 49 48 47 46 45 44 44 43 42 41 41 40 40 39 39 38 37 36 35 33 33 33 33 33 34 34 34 34 35 35 35 35 35 36 36 36 37 37 36 36 36 36 36 36 36 36 36 35 35 35 35 34 33 32 32 32 32 31 30 30 30 31 31 30 29 28 28 28
59 57 56 55 53 52 51 50 51 53 54 54 54 54 52 51 51 51 50 48 47 47 46 45 44 43 42 42 42 42 41 40 40 38 37 36 36 34 33 32 32 32 32 32 33 33 32 33 33 33 33 33 33 33 34 34 34 34 34 35 35 35 35 35 35 35 35 35 34 34 34 33 33 33 33 31 30 30 30 30 31 30 30 29 28
55 54 53 53 53 52 50 48 48 50 50 50 51 51 50 50 51 52 52 51 50 49 47 45 43 43 42 41 42 42 41 41 41 40 39 38 37 36 36 35 34 33 33 32 32 32 32 32 32 32 32 32 32 32 32 32 32 32 32 32 33 33 33 33 33 33 33 33 32 32 32 32 32 32 31 30 29 29 29 30 30 31 31 30 30
52 52 53 54 54 54 51 47 46 47 47 46 47 46 46 47 48 50 52 53 52 50 49 47 45 44 43 43 43 43 43 42 43 42 41 40 39 38 38 37 36 36 35 34 34 34 34 34 33 33 33 32 32 32 32 32 32 32 31 31 31 30 31 31 32 31 29 28 28 29 30 30 29 29 29 29 29 30 30 30 30 31 32 31 30
56 58 59 57 54 53 51 50 50 51 50 49 49 48 47 47 48 49 50 50 50 49 47 46 45 45 45 45 45 45 45 44 44 43 42 41 40 39 38 37 37 37 36 35 35 34 34 33 33 33 34 33 33 33 32 32 32 32 31 31 31 31 30 30 30 29 28 27 27 27 28 28 28 29 30 30 31 31 31 31 31 32 32 31 30
60 61 61 58 56 56 56 56 56 56 56 54 52 51 50 50 51 51 50 50 49 48 46 44 44 44 44 44 44 44 44 43 42 41 40 39 38 37 37 37 36 35 34 34 34 34 32 32 32 32 32 32 32 32 32 32 32 32 32 32 31 30 29 29 29 28 28 27 27 27 27 28 28 29 29 30 31 31 32 33 34 34 33 32 32
60 60 60 59 58 58 58 58 58 56 54 51 50 50 50 50 50 50 49 49 47 46 44 44 44 44 44 44 43 43 42 41 40 39 38 37 36 36 36 35 35 34 34 34 34 34 34 34 34 33 32 32 32 32 32 32 32 33 33 32 31 29 28 27 27 27 27 27 27 27 28 28 29 29 30 30 31 32 32 33 34 35 36 35 34